Weather History for Pipestone, MN

Change the Weather History Date:

Thursday, December 26, 2013

  Actual Average Record
Temperature  
Mean Temperature 21 °F -  
Max Temperature 30 °F 23 °F 50 °F (2011)
Min Temperature 12 °F 8 °F -20 °F (1996)
Degree Days  
Heating Degree Days 44    
Moisture  
Dew Point 20 °F    
Average Humidity 88    
Maximum Humidity 93    
Minimum Humidity 80    
Precipitation  
Precipitation 0.02 in - - ()
Sea Level Pressure  
Sea Level Pressure 30.05 in    
Wind  
Wind Speed 6 mph (WSW)    
Max Wind Speed 10 mph    
Max Gust Speed -    
Visibility 10 miles    
Events Fog    
Averages and records for this station are not official NWS values.
T = Trace of Precipitation, MM = Missing Value Source: NWS Daily Summary

Daily Weather History Graph

Daily Weather History Graph

Search for Another Location

Airport:

Trip Planner

Search our weather history database for the weather conditions in past years. The results will help you decide how hot, cold, wet, or windy it might be!

Date:

Astronomy

Dec. 26, 2013 Rise Set
Actual Time 7:58 AM CST 4:53 PM CST
Civil Twilight 7:25 AM CST 5:26 PM CST
Nautical Twilight 6:49 AM CST 6:02 PM CST
Astronomical Twilight 6:14 AM CST 6:37 PM CST
Moon 1:19 AM CST (12/26) 12:37 PM CST (12/26)
Length of Visible Light 10h 00m
Length of Day
8h 54m
Last Quarter, 38% of the Moon is Illuminated
Dec 26
Last Quarter
Jan 1
New
Jan 7
First Quarter
Jan 15
Full
Jan 23
Last Quarter

Hourly Weather History & Observations

Time (CST) Temp. Windchill Dew Point Humidity Pressure Visibility Wind Dir Wind Speed Gust Speed Precip Events Conditions
12:13 AM 21.2 °F 13.6 °F 19.4 °F 93% 30.07 in 10.0 mi SW 5.8 mph - N/A   Overcast
12:33 AM 21.2 °F 11.7 °F 19.4 °F 93% 30.06 in 10.0 mi SW 8.1 mph - N/A   Overcast
12:54 AM 21.2 °F 11.7 °F 19.4 °F 93% 30.06 in 10.0 mi SW 8.1 mph - N/A   Overcast
1:13 AM 21.2 °F 12.6 °F 19.4 °F 93% 30.05 in 10.0 mi WSW 6.9 mph - N/A   Overcast
1:33 AM 21.2 °F 13.6 °F 19.4 °F 93% 30.05 in 10.0 mi WSW 5.8 mph - N/A   Overcast
1:53 AM 21.2 °F 13.6 °F 19.4 °F 93% 30.04 in 10.0 mi WSW 5.8 mph - N/A   Overcast
2:13 AM 21.2 °F 14.9 °F 19.4 °F 93% 30.04 in 10.0 mi WSW 4.6 mph - N/A   Overcast
2:33 AM 21.2 °F 14.9 °F 19.4 °F 93% 30.04 in 10.0 mi WSW 4.6 mph - N/A   Overcast
2:53 AM 21.2 °F 12.6 °F 19.4 °F 93% 30.05 in 10.0 mi SW 6.9 mph - N/A   Mostly Cloudy
3:13 AM 21.2 °F 11.7 °F 19.4 °F 93% 30.04 in 10.0 mi WSW 8.1 mph - N/A   Scattered Clouds
3:33 AM 21.2 °F 12.6 °F 19.4 °F 93% 30.04 in 10.0 mi WSW 6.9 mph - N/A   Scattered Clouds
3:53 AM 21.2 °F 13.6 °F 19.4 °F 93% 30.03 in 10.0 mi WSW 5.8 mph - N/A   Scattered Clouds
4:13 AM 21.2 °F 16.4 °F 19.4 °F 93% 30.03 in 10.0 mi WSW 3.5 mph - N/A   Scattered Clouds
4:33 AM 19.4 °F 12.8 °F 17.6 °F 93% 30.02 in 10.0 mi WSW 4.6 mph - N/A   Mostly Cloudy
4:53 AM 19.4 °F 14.3 °F 17.6 °F 93% 30.02 in 10.0 mi SW 3.5 mph - N/A   Overcast
5:13 AM 19.4 °F - 17.6 °F 93% 30.01 in 10.0 mi Calm Calm - N/A   Overcast
5:33 AM 19.4 °F 12.8 °F 17.6 °F 93% 30.01 in 10.0 mi SW 4.6 mph - N/A   Mostly Cloudy
5:53 AM 21.2 °F 13.6 °F 19.4 °F 93% 30.00 in 10.0 mi SSW 5.8 mph - N/A   Overcast
6:13 AM 21.2 °F 14.9 °F 19.4 °F 93% 30.01 in 10.0 mi SW 4.6 mph - N/A   Overcast
6:33 AM 23.0 °F 13.9 °F 19.4 °F 86% 30.01 in 10.0 mi SW 8.1 mph - N/A   Overcast
6:53 AM 21.2 °F 13.6 °F 19.4 °F 93% 30.02 in 10.0 mi WSW 5.8 mph - N/A   Overcast
7:13 AM 21.2 °F 12.6 °F 19.4 °F 93% 30.01 in 10.0 mi SW 6.9 mph - N/A   Overcast
7:33 AM 21.2 °F 14.9 °F 19.4 °F 93% 30.01 in 10.0 mi SW 4.6 mph - N/A   Mostly Cloudy
7:54 AM 21.2 °F 16.4 °F 17.6 °F 86% 30.01 in 10.0 mi SSW 3.5 mph - N/A   Mostly Cloudy
8:13 AM 19.4 °F 14.3 °F 17.6 °F 93% 30.01 in 10.0 mi SSW 3.5 mph - N/A   Scattered Clouds
8:33 AM 21.2 °F 14.9 °F 19.4 °F 93% 30.01 in 10.0 mi WSW 4.6 mph - N/A   Mostly Cloudy
8:53 AM 21.2 °F 12.6 °F 19.4 °F 93% 30.02 in 10.0 mi WSW 6.9 mph - N/A   Overcast
9:13 AM 23.0 °F 15.8 °F 19.4 °F 86% 30.02 in 10.0 mi SW 5.8 mph - N/A   Overcast
9:33 AM 23.0 °F 14.7 °F 19.4 °F 86% 30.01 in 10.0 mi SSW 6.9 mph - N/A   Mostly Cloudy
9:53 AM 24.8 °F 19.1 °F 21.2 °F 86% 30.02 in 10.0 mi SW 4.6 mph - N/A   Overcast
10:13 AM 24.8 °F 16.9 °F 21.2 °F 86% 30.03 in 10.0 mi SW 6.9 mph - N/A   Overcast
10:33 AM 26.6 °F 20.0 °F 23.0 °F 86% 30.03 in 10.0 mi WSW 5.8 mph - N/A   Overcast
10:54 AM 26.6 °F 20.0 °F 23.0 °F 86% 30.03 in 10.0 mi WSW 5.8 mph - N/A   Overcast
11:13 AM 28.4 °F 19.1 °F 23.0 °F 80% 30.03 in 10.0 mi West 10.4 mph - N/A   Overcast
11:33 AM 26.6 °F 17.5 °F 21.2 °F 80% 30.03 in 10.0 mi West 9.2 mph - N/A   Scattered Clouds
11:53 AM 26.6 °F 19.1 °F 21.2 °F 80% 30.03 in 10.0 mi WSW 6.9 mph - N/A   Clear
12:13 PM 28.4 °F 22.2 °F 23.0 °F 80% 30.01 in 10.0 mi WSW 5.8 mph - N/A   Scattered Clouds
12:33 PM 28.4 °F 23.3 °F 23.0 °F 80% 30.01 in 10.0 mi WSW 4.6 mph - N/A   Scattered Clouds
12:53 PM 28.4 °F 24.6 °F 24.8 °F 86% 30.00 in 10.0 mi WSW 3.5 mph - N/A   Clear
1:14 PM 28.4 °F 23.3 °F 24.8 °F 86% 30.01 in 10.0 mi West 4.6 mph - N/A   Clear
1:33 PM 28.4 °F 21.2 °F 24.8 °F 86% 30.01 in 10.0 mi West 6.9 mph - N/A   Scattered Clouds
1:53 PM 30.2 °F 25.4 °F 24.8 °F 80% 30.01 in 10.0 mi West 4.6 mph - N/A   Mostly Cloudy
2:13 PM 30.2 °F 25.4 °F 26.6 °F 86% 30.01 in 10.0 mi West 4.6 mph - 0.02 in   Overcast
2:33 PM 30.2 °F 22.6 °F 24.8 °F 80% 30.01 in 10.0 mi West 8.1 mph - N/A   Mostly Cloudy
2:53 PM 30.2 °F 23.4 °F 24.8 °F 80% 30.01 in 10.0 mi West 6.9 mph - N/A   Scattered Clouds
3:14 PM 30.2 °F 21.9 °F 24.8 °F 80% 30.02 in 10.0 mi West 9.2 mph - N/A   Scattered Clouds
3:33 PM 30.2 °F 21.9 °F 24.8 °F 80% 30.02 in 10.0 mi West 9.2 mph - N/A   Clear
3:53 PM 30.2 °F 21.3 °F 24.8 °F 80% 30.03 in 10.0 mi WNW 10.4 mph - N/A   Clear
4:13 PM 30.2 °F 21.9 °F 24.8 °F 80% 30.05 in 10.0 mi WNW 9.2 mph - N/A   Clear
4:33 PM 28.4 °F 19.7 °F 23.0 °F 80% 30.06 in 10.0 mi West 9.2 mph - N/A   Clear
4:53 PM 24.8 °F 16.1 °F 19.4 °F 80% 30.06 in 10.0 mi West 8.1 mph - N/A   Clear
5:13 PM 21.2 °F 11.7 °F 17.6 °F 86% 30.07 in 10.0 mi West 8.1 mph - N/A   Clear
5:33 PM 24.8 °F 15.3 °F 21.2 °F 86% 30.08 in 10.0 mi WNW 9.2 mph - N/A   Clear
5:53 PM 26.6 °F 17.5 °F 21.2 °F 80% 30.09 in 10.0 mi WNW 9.2 mph - N/A   Clear
6:13 PM 24.8 °F 15.3 °F 21.2 °F 86% 30.10 in 10.0 mi WNW 9.2 mph - N/A   Clear
6:33 PM 24.8 °F 15.3 °F 21.2 °F 86% 30.11 in 10.0 mi WNW 9.2 mph - N/A   Clear
6:53 PM 26.6 °F 16.8 °F 21.2 °F 80% 30.11 in 10.0 mi WNW 10.4 mph - N/A   Clear
7:13 PM 24.8 °F 15.3 °F 21.2 °F 86% 30.12 in 10.0 mi WNW 9.2 mph - N/A   Clear
7:33 PM 24.8 °F 16.9 °F 21.2 °F 86% 30.12 in 10.0 mi WNW 6.9 mph - N/A   Clear
7:53 PM 21.2 °F 11.7 °F 19.4 °F 93% 30.13 in 10.0 mi WNW 8.1 mph - N/A   Clear
8:13 PM 23.0 °F 13.9 °F 21.2 °F 93% 30.14 in 10.0 mi WNW 8.1 mph - N/A   Mostly Cloudy
8:33 PM 24.8 °F 17.9 °F 21.2 °F 86% 30.13 in 10.0 mi WNW 5.8 mph - N/A   Overcast
8:53 PM 24.8 °F 17.9 °F 21.2 °F 86% 30.13 in 10.0 mi WNW 5.8 mph - N/A   Overcast
9:13 PM 24.8 °F 17.9 °F 21.2 °F 86% 30.14 in 10.0 mi WNW 5.8 mph - N/A   Overcast
9:33 PM 24.8 °F 20.5 °F 21.2 °F 86% 30.14 in 10.0 mi NW 3.5 mph - N/A   Overcast
9:53 PM 23.0 °F 18.4 °F 21.2 °F 93% 30.14 in 10.0 mi NW 3.5 mph - N/A   Overcast
10:13 PM 17.6 °F - 15.8 °F 93% 30.14 in 10.0 mi Calm Calm - N/A   Mostly Cloudy
10:33 PM 17.6 °F 12.3 °F 15.8 °F 93% 30.14 in 10.0 mi WSW 3.5 mph - N/A   Scattered Clouds
10:53 PM 15.8 °F - 12.2 °F 86% 30.14 in 2.0 mi Calm Calm - N/A   Mostly Cloudy
11:13 PM 14.0 °F 8.2 °F 12.2 °F 93% 30.14 in 0.5 mi WSW 3.5 mph - N/A Fog Light Freezing Fog
11:33 PM 12.2 °F 6.1 °F 10.4 °F 92% 30.14 in 0.2 mi WSW 3.5 mph - N/A Fog Light Freezing Fog
11:53 PM 14.0 °F 8.2 °F 10.4 °F 86% 30.14 in 0.2 mi SW 3.5 mph - N/A Fog Light Freezing Fog